Regional Weather Roundup
Issued by NWS

Home | Current Version | Previous Version | Text Only | Print | Product List | Glossary Off
Versions: 1 2 3 4 5 6 7 8 9 10 11 12 13 14 15 16 17 18 19 20 21 22 23 24 25 26 27 28 29 30 31 32 33 34 35 36 37 38 39 40 41 42 43 44 45 46 47 48 49 50

000
ASUS43 KLMK 041002
RWRKY
KENTUCKY REGIONAL WEATHER ROUNDUP
NATIONAL WEATHER SERVICE LOUISVILLE KY
600 AM EDT WED MAY 04 2016

NOTE "FAIR" INDICATES FEW OR NO CLOUDS BELOW 12,000 FEET
WITH NO SIGNIFICANT WEATHER AND/OR OBSTRUCTIONS TO VISIBILITY.

KYZ001>023-026-027-061>063-070>075-041100-
WESTERN AND SOUTH CENTRAL KENTUCKY

CITY           SKY/WX    TMP DP  RH WIND       PRES   REMARKS
PADUCAH        PTCLDY    50  46  86 SW7       29.83F
HENDERSON      CLOUDY    52  43  71 SW10      29.79F
OWENSBORO      CLEAR     47  45  93 S6        29.80F
HOPKINSVILLE   CLEAR     47  45  95 SW7       29.84F
BOWLING GREEN  CLEAR     49  44  83 SW6       29.84F
GLASGOW        NOT AVBL
$$

KYZ024-025-028>034-038-045-046-053-041100-
NORTH CENTRAL KENTUCKY

CITY           SKY/WX    TMP DP  RH WIND       PRES   REMARKS
LOUISVILLE/SDF CLOUDY    54  43  66 SW6       29.77F
LOUISVILLE/LOU CLOUDY    51  46  83 S3        29.78F
FORT KNOX      NOT AVBL
$$

KYZ035>037-039>044-047>052-055>060-089>105-041100-
NORTHEAST KENTUCKY

CITY           SKY/WX    TMP DP  RH WIND       PRES   REMARKS
LEXINGTON      CLEAR     47  43  86 SW7       29.78F
COVINGTON      CLOUDY    48  46  93 SW5       29.74F
FRANKFORT      CLOUDY    48  44  86 SW6       29.77F
$$

KYZ054-064>069-076>088-106>120-041100-
SOUTHEAST KENTUCKY

CITY           SKY/WX    TMP DP  RH WIND       PRES   REMARKS
JACKSON        CLOUDY    51  48  89 W5        29.79S
LONDON         LGT RAIN  51  45  79 W7        29.81F
SOMERSET       NOT AVBL
MIDDLESBORO    CLOUDY    53  45  75 CALM      29.82S
MONTICELLO     CLOUDY    49  45  86 W12       29.85S
$$





USA.gov is the U.S. government's official web portal to all federal, state and local government web resources and services.